Regional Weather Roundup
Issued by NWS

Home | Current Version | Previous Version | Text Only | Print | Product List | Glossary On
Versions: 1 2 3 4 5 6 7 8 9 10 11 12 13 14 15 16 17 18 19 20 21 22 23 24 25 26 27 28 29 30 31 32 33 34 35 36 37 38 39 40 41 42 43 44 45 46 47 48 49 50
000
ASUS44 KOUN 231400
RWROK

WEATHER ROUNDUP FOR OKLAHOMA
NATIONAL WEATHER SERVICE NORMAN OK
900 AM CDT SAT MAY 23 2015

NOTE: "FAIR" INDICATES FEW OR NO CLOUDS BELOW 12,000 FEET WITH NO
      SIGNIFICANT WEATHER AND/OR OBSTRUCTIONS TO VISIBILITY.

OKZ001>007-009>012-014-015-017-231500-
NORTHWEST OKLAHOMA AND THE PANHANDLE

CITY           SKY/WX    TMP DP  RH WIND       PRES   REMARKS
GAGE           LGT RAIN  57  57 100 NW8G20    30.09R FOG
GUYMON         LGT RAIN  55  54  96 NE16      30.00F
$$

OKZ016-021>023-033>039-044-045-231500-
SOUTHWEST OKLAHOMA

CITY           SKY/WX    TMP DP  RH WIND       PRES   REMARKS
LAWTON/REGL    CLOUDY    67  65  93 SE15      30.06F FOG
FREDERICK      FOG       67  67 100 SE17G26   30.00F VSB 1/2
CLINTON        FOG       63  62  97 SE20G25   30.02F VSB 1/4
HOBART         FOG       65  65 100 SE24      30.02F VSB 1/2
ALTUS AFB      FOG       66  66 100 SE17G25   30.01F VSB 1/2
$$

OKZ018>020-024>031-231500-
CENTRAL OKLAHOMA

CITY           SKY/WX    TMP DP  RH WIND       PRES   REMARKS
OKLAHOMA CITY  DRZL/FOG  62  61  96 SE13      30.12S VSB 1/2
OKC/WILEY POST FOG       64  62  93 SE13      30.12S VSB 1
STILLWATER     CLOUDY    61  59  93 SE8       30.15R
GUTHRIE        CLOUDY    62  60  93 SE10      30.13F FOG
$$

OKZ008-013-054>072-231500-
NORTHEAST OKLAHOMA

CITY           SKY/WX    TMP DP  RH WIND       PRES   REMARKS
TULSA          CLOUDY    62  58  86 SE8       30.19R
TULSA/JONES    CLOUDY    61  58  90 SE7       30.20R
PONCA CITY     CLOUDY    60  59  96 SE10      30.15F FOG
BARTLESVILLE   CLOUDY    59  59 100 E5        30.22R
MUSKOGEE       CLOUDY    63  59  87 SE17G23   30.20R
$$

OKZ032-040>043-046>053-073>077-231500-
SOUTH CENTRAL/SOUTHEAST OKLAHOMA

CITY           SKY/WX    TMP DP  RH WIND       PRES   REMARKS
MCALESTER      CLOUDY    66  61  84 SE7       30.18R
$$



USA.gov is the U.S. government's official web portal to all federal, state and local government web resources and services.